Overview Statistics Trail Chart Weather Telemetry Raw packets
 

This is the latest recevied weather packets stored in our database for station/object EA5GTE-12. If no packets are shown the sender has not sent any weather packets the latest 10 day(s).

<< 1 2 3 4 >>
Time Temp. Humidity Pressure Rain* Wind** Luminosity Snow
1788620038 39.44° C 12% 943.6 hPa - - - -
1788619138 38.89° C 12% 943.5 hPa - - - -
1788618238 36.67° C 15% 943.8 hPa - - - -
1788617338 37.78° C 16% 943.9 hPa - - - -
1788616438 38.33° C 16% 944.2 hPa - - - -
1788615538 38.33° C 15% 944.3 hPa - - - -
1788614638 34.44° C 20% 944.5 hPa - - - -
1788613738 36.11° C 19% 944.5 hPa - - - -
1788612838 36.67° C 17% 944.4 hPa - - - -
1788611938 37.78° C 16% 944.5 hPa - - - -
1788611038 38.89° C 15% 944.6 hPa - - - -
1788610138 38.89° C 16% 944.4 hPa - - - -
1788609238 36.67° C 18% 944.9 hPa - - - -
1788608338 36.11° C 21% 945 hPa - - - -
1788607438 36.11° C 20% 945 hPa - - - -
1788606538 38.33° C 19% 945 hPa - - - -
1788605637 38.33° C 20% 945.1 hPa - - - -
1788604737 35.56° C 22% 945.2 hPa - - - -
1788602938 35.56° C 30% 945.6 hPa - - - -
1788602038 36.11° C 31% 945.6 hPa - - - -
1788601138 35.56° C 33% 945.6 hPa - - - -
1788600238 35° C 34% 945.6 hPa - - - -
1788599338 36.11° C 33% 945.4 hPa - - - -
1788598437 36.11° C 37% 945.4 hPa - - - -
1788597538 33.89° C 44% 945.4 hPa - - - -

* Rain since midnight (hover to see other rain measurements)
** Current wind speed in m/s (hover to see current wind gust speed)